Location: ??? ???
(33.4974°N, 35.4618°E)
Time: 18:51:26
(UTC+00:00)

Milstar 3 - Pass Details

Date: 29 October 2020
Orbit: 1101 x 5144 km, 28.2° (Epoch: 28 November)

Event Time Altitude Azimuth Distance (km) Brightness Sun altitude
Rises 16:23:28 0° 265° (W) 4,314 7.5 -20.3°
Reaches altitude 10° 16:26:34 10° 262° (W) 3,128 6.3 -20.9°
Maximum altitude 16:33:19 56° 185° (S) 1,281 3.1 -22.3°
Enters shadow 16:36:09 34° 124° (SE) 1,763 3.4 -22.9°
